Location: Cutler
(25.6150°N, 80.3110°W)
Time: 17:03:12
(UTC-05:00)

ISS - Pass Details

Date: 18 November 2017
Orbit: 402 x 407 km, 51.6° (Epoch: 23 November)

Event Time Altitude Azimuth Distance (km) Brightness Sun altitude
Exits shadow 05:41:56 11° 342° (NNW) 1,406 -1.4 -13.5°
Maximum altitude 05:44:44 30° 45° (NE) 745 -2.2 -12.9°
Drops below altitude 10° 05:47:38 10° 109° (ESE) 1,444 0.5 -12.3°
Sets 05:49:51 0° 120° (ESE) 2,300 1.7 -11.8°
